KBAXKTVC

Guest
Details From KBAX - HURON CO MEM
To KTVC - CHERRY CAPITAL
Flight Number -
Tags generated
Created
Modified
Stats Distance 126 nm / 233 km
Max Altitude 14,500 ft / 4,420 m
Waypoints 3
Social Downloads 0
Likes 0
Share VATSIM

Download

Looking for another format? Having issues loading an existing format? Contact us
Advertisement - Login to hide

Notes

Basic altitude profile: - Ascent Rate: 500ft/min - Ascent Speed: 120kts - Cruise Altitude: 5000ft - Cruise Speed: 100kts - Descent Rate: 500ft/min - Descent Speed: 120kts Options: - Use NATs: no - Use PACOTS: no - Use low airways: yes - Use high airways: no

Route

KBAX SNOWW KTVC

ID Type Via Altitude Latitude Longitude Leg Dist Tot Dist Heading (true) Name
O KBAX APT - 0 ft / 0 m 43.78063˚ -82.98550˚ - 0 nm - HURON CO MEM
SNOWW FIX - 14,500 ft / 4,420 m 44.09907˚ -83.89027˚ 43 nm 43 nm 296° / 296° -
O KTVC APT - 0 ft / 0 m 44.74175˚ -85.58282˚ 82 nm 125 nm 299° / 297° CHERRY CAPITAL

Altitude Profile

Advertisement - Login to hide

KBAX

Details ICAO KBAX
Name HURON CO MEM
Region United States
Timezone America/Detroit (UTC-4.0)
Stats Elevation 766 ft / 233 m (AMSL)
Location 43.780630° -82.985502°
Runways 2
Magnetic Variation 7.926° W

METAR

KBAX 221836Z AUTO 34010KT 10SM OVC010 14/12 A3000 RMK AO2 T01370118

Decode

TAF

Not found

Departure Runways

ID Width Length Bearing (true) Bearing (mag) Surface Threshold Offset Overrun Length
04 75 ft / 23 m 3,496 ft / 1,065 m 28.28° 36.21° Asphalt 300 ft / 91 m 0 ft / 0 m
17 75 ft / 23 m 5,005 ft / 1,525 m 164.82° 172.75° Asphalt 0 ft / 0 m 0 ft / 0 m
22 75 ft / 23 m 3,496 ft / 1,065 m 208.28° 216.21° Asphalt 0 ft / 0 m 0 ft / 0 m
35 75 ft / 23 m 5,005 ft / 1,525 m 344.82° 352.75° Asphalt 0 ft / 0 m 0 ft / 0 m

KTVC

Details ICAO KTVC (TVC)
Name CHERRY CAPITAL
Region United States
Timezone America/Detroit (UTC-4.0)
Stats Elevation 624 ft / 190 m (AMSL)
Location 44.741747° -85.582820°
Runways 2
Magnetic Variation 6.119° W

METAR

KTVC 221753Z VRB05KT 10SM FEW035 18/09 A3002 RMK AO2 SLP164 T01830089 10189 20117 58002

Decode

TAF

KTVC 221740Z 2218/2318 01006KT P6SM FEW035 FM222000 35007KT P6SM FEW200 FM230000 VRB03KT P6SM FEW250 FM230800 00000KT P6SM FEW250 FM231500 30005KT P6SM FEW250

Decode

Destination Runways

ID Width Length Bearing (true) Bearing (mag) Surface Threshold Offset Overrun Length
10 151 ft / 46 m 6,484 ft / 1,976 m 93.71° 99.83° Asphalt 0 ft / 0 m 0 ft / 0 m
18 151 ft / 46 m 5,383 ft / 1,641 m 180.15° 186.27° Asphalt 269 ft / 82 m 0 ft / 0 m
28 151 ft / 46 m 6,484 ft / 1,976 m 273.73° 279.85° Asphalt 0 ft / 0 m 0 ft / 0 m
36 151 ft / 46 m 5,383 ft / 1,641 m 0.15° 6.27° Asphalt 0 ft / 0 m 0 ft / 0 m

Approach Navaids

Runway Type Ident Frequency Range Bearing (true) Bearing (mag) Slope Elevation
28 Localiser ITVC 110.70 MHz 18 nm / 33 km 273.71° 279.83° - 624 ft / 190 m (AMSL)
28 Glidescope ITVC 110.70 MHz 10 nm / 19 km 273.72° 279.84° 3.00° 611 ft / 186 m (AMSL)

Popular Alternatives